Station 4403586 - Buffalo Buoy Image indicating link to RSS feed of recent meteorological observations for station 4403586


Conditions at 4403586 as of
(9:10 am EDT)
1310 GMT on 08/31/2026:
     

Click on the graph icon in the table below to see a time series plot of the last five days of that observation.

5-day plot - Wind Direction Wind Direction (WDIR):SSW ( 198 deg true )
5-day plot - Wind Speed Wind Speed (WSPD): 12.8 kts
5-day plot - Atmospheric Pressure Atmospheric Pressure (PRES):30.05 in
5-day plot - Air Temperature Air Temperature (ATMP): 68.5 °F
5-day plot - Water Temperature Water Temperature (WTMP): 73.2 °F
5-day plot - Dew Point Dew Point (DEWP): 66.7 °F
5-day plot -  Wind Speed, Wind Gust and Atmospheric Pressure Combined plot of Wind Speed, Gust, and Air Pressure
Previous observations
TIME
(EDT)
5-day plot - Wind Direction
WDIR
 
5-day plot - Wind Speed
WSPD
kts
5-day plot - Wind Gust
GST
kts
5-day plot - Wave Height
WVHT
ft
5-day plot - Dominant Wave Period
DPD
sec
5-day plot - Average Wave Period
APD
sec
5-day plot - Mean Wave Direction
MWD
 
5-day plot - Atmospheric Pressure
PRES
in
5-day plot - Pressure Tendency
PTDY
in
5-day plot - Air Temperature
ATMP
°F
5-day plot - Water Temperature
WTMP
°F
5-day plot - Dew Point
DEWP
°F
5-day plot - Salinity
SAL
psu
5-day plot - Visibility
VIS
nmi
5-day plot - Tide (above MLLW)
TIDE
ft
2026-08-31 09:00 am S 12.2- 1.3--WSW30.05- 69.1 73.2 66.6---
2026-08-31 08:50 amSSW 10.7-----30.04- 69.4 73.2 66.6---
2026-08-31 08:40 am S 10.5- 1.3--WSW30.04- 69.3 73.2 66.6---
2026-08-31 08:30 am S 10.3-----30.04- 69.4 73.2 67.1---
2026-08-31 08:20 am S 8.5- 1.3-- W30.04- 69.1 73.2 66.4---
2026-08-31 08:10 am S 9.5-----30.05- 69.3 73.2 66.7---
2026-08-31 08:00 am S 9.3- 1.0-- W30.05- 69.4 73.2 66.9---
2026-08-31 07:50 amSSE 8.0-----30.06- 69.3 73.2 66.6---
2026-08-31 07:40 amSSW 8.5- 1.0-- W30.06- 68.9 73.2 66.6---
2026-08-31 07:30 amSSE 7.0-----30.05- 68.4 73.2 66.0---
2026-08-31 07:20 amSSE 7.4- 1.3-- W30.05- 68.2 73.2 66.0---
2026-08-31 07:10 amSSE 7.4-----30.05- 68.5 73.2 66.0---
2026-08-31 07:00 am S 8.2- 1.3-- W30.05- 68.2 73.2 66.0---
2026-08-31 06:50 amSSE 8.5-----30.06- 68.7 73.2 66.0---
2026-08-31 06:40 amSSE 7.4- 1.3-- W30.06- 68.7 73.2 65.8---
2026-08-31 06:30 am SE 5.2-----30.06- 68.7 73.2 65.5---
2026-08-31 06:20 amSSE 5.1- 1.3-- W30.06- 68.9 73.2 65.8---
2026-08-31 06:10 am SE 8.5-----30.05- 68.5 73.2 65.5---
2026-08-31 06:00 amSSE 8.5- 1.3-- W30.05- 68.5 73.2 66.4---
2026-08-31 05:50 am S 8.5-----30.06- 68.4 73.2 65.8---
2026-08-31 05:40 am SE 7.6- 1.3-- W30.05- 68.0 73.2 65.8---
2026-08-31 05:30 amSSE 7.0-----30.05- 68.2 73.2 66.2---
2026-08-31 05:20 amSSE 6.4- 1.3-- W30.05- 68.2 73.2 65.5---
2026-08-31 05:10 am S 8.7-----30.06- 68.5 73.2 66.2---
2026-08-31 05:00 amSSE 7.8- 1.3--WSW30.05- 68.5 73.2 65.8---
2026-08-31 04:50 am S 6.2-----30.06- 68.5 73.2 65.7---
2026-08-31 04:40 am S 8.7- 1.3--WSW30.06- 68.7 73.2 66.9---
2026-08-31 04:30 amSSW 5.2-----30.07- 68.2 73.2 65.3---
2026-08-31 04:20 am S 7.4- 1.3--WSW30.06- 68.4 73.2 65.7---
2026-08-31 04:10 am S 8.9-----30.07- 68.5 73.2 66.2---
2026-08-31 04:00 amSSW 8.5- 1.3--WSW30.07- 68.5 73.2 66.2---
2026-08-31 03:50 amSSW 8.0-----30.07- 68.4 73.2 66.0---
2026-08-31 03:40 amSSW 10.1- 1.3--WSW30.08- 68.5 73.2 66.9---
2026-08-31 03:30 amSSW 11.5-----30.08- 68.4 73.2 66.7---
2026-08-31 03:20 amSSW 9.1- 1.3--WSW30.08- 68.4 73.2 66.9---
2026-08-31 03:10 amSSW 9.5-----30.08- 68.4 73.2 66.7---
2026-08-31 03:00 am SW 10.3- 1.3--WSW30.08- 68.4 73.2 66.7---
2026-08-31 02:50 amSSW 11.7-----30.08- 68.9 73.2 67.6---
2026-08-31 02:40 amSSW 8.7- 1.6--WSW30.09- 68.7 73.2 67.1---
2026-08-31 02:30 am SW 7.0-----30.09- 68.9 73.2 67.6---
2026-08-31 02:20 amWSW 6.0- 1.3--WSW30.09- 68.7 73.4 67.3---
2026-08-31 02:10 amWSW 8.0-----30.09- 69.1 73.4 67.3---
2026-08-31 02:00 amWNW 5.6- 1.3--WSW30.09- 69.3 73.2 66.7---
2026-08-31 01:50 am W 5.4-----30.09- 70.9 73.2 67.6---
2026-08-31 01:40 amWSW 11.5- 1.3--WSW30.09- 71.1 73.2 65.8---
2026-08-31 01:30 amWSW 9.7-----30.09- 70.7 73.4 66.0---
2026-08-31 01:20 amSSW 9.9- 1.0--WSW30.09- 70.0 73.4 68.2---
2026-08-31 01:10 amWSW 8.4-----30.10- 70.7 73.4 66.7---
2026-08-31 01:00 amSSW 7.0- 1.0--WSW30.09- 69.4 73.4 67.8---
2026-08-31 12:50 am S 9.5-----30.09- 68.9 73.4 67.5---
2026-08-31 12:40 amSSW 6.8- 1.0--WSW30.09- 69.4 73.4 68.0---
2026-08-31 12:30 amSSW 6.8-----30.09- 69.1 73.4 68.0---
2026-08-31 12:20 amSSW 7.8- 1.0--WSW30.09- 68.4 73.4 67.3---
2026-08-31 12:10 amSSW 8.9-----30.09- 68.2 73.4 67.3---
2026-08-31 12:00 amWSW 6.0- 1.0--WSW30.09- 68.2 73.4 67.1---
2026-08-30 11:50 pmSSW 8.4-----30.10- 67.8 73.4 67.1---
2026-08-30 11:40 pmSSW 9.7- 1.0--WSW30.10- 67.8 73.4 67.1---
2026-08-30 11:30 pm SW 9.1-----30.10- 67.8 73.4 67.3---
2026-08-30 11:20 pmSSW 7.0- 1.0-- SW30.10- 68.0 73.4 67.6---
2026-08-30 11:10 pmSSW 10.7-----30.10- 67.8 73.4 67.5---
2026-08-30 11:00 pmSSW 8.9- 1.0-- SW30.10- 67.8 73.4 67.1---
2026-08-30 10:50 pmSSW 10.7-----30.11- 68.0 73.4 67.3---
2026-08-30 10:40 pmSSW 9.7- 0.7---30.10- 68.4 73.4 67.5---
2026-08-30 10:30 pmSSW 10.5-----30.10- 68.0 73.4 66.9---
2026-08-30 10:20 pmSSW 9.5- 0.7---30.10- 68.4 73.4 67.3---
2026-08-30 10:10 pm SW 11.1-----30.10- 68.9 73.4 68.2---
2026-08-30 10:00 pm SW 8.0- 0.7---30.11- 68.7 73.4 67.5---
2026-08-30 09:50 pm SW 8.0-----30.11- 68.7 73.4 67.5---
2026-08-30 09:40 pmSSW 10.5- 0.7---30.11- 68.5 73.4 67.1---
2026-08-30 09:30 pm SW 7.8-----30.11- 68.5 73.4 66.9---
2026-08-30 09:20 pm SW 8.5- 0.7---30.11- 68.4 73.4 66.7---
2026-08-30 09:10 pm SW 6.6-----30.11- 68.5 73.4 67.1---
2026-08-30 09:00 pmSSW 6.2- 0.7---30.10- 68.0 73.4 66.4---
2026-08-30 08:50 pmSSW 6.8-----30.10- 67.8 73.4 66.4---
2026-08-30 08:40 pmSSW 6.8- 0.7---30.10- 67.6 73.4 66.6---
2026-08-30 08:30 pmSSW 2.5-----30.10- 67.1 73.4 65.3---
2026-08-30 08:20 pm SE 3.5- 0.7---30.09- 66.7 73.4 65.3---
2026-08-30 08:10 pm E 3.7-----30.09- 66.4 73.4 64.9---
2026-08-30 08:00 pmESE 3.1- 0.7---30.09- 66.4 73.4 64.8---
2026-08-30 07:50 pmESE 5.1-----30.09- 66.2 73.4 64.6---
2026-08-30 07:40 pm E 3.7- 0.7---30.09- 66.0 73.4 64.2---
2026-08-30 07:30 pmESE 4.1-----30.09- 66.2 73.4 64.2---
2026-08-30 07:20 pmESE 3.3- 0.7---30.09- 66.2 73.4 64.2---
2026-08-30 07:10 pm SE 2.1-----30.08- 66.2 73.4 64.0---
2026-08-30 07:00 pm- 1.0- 0.7---30.09- 66.4 73.4 64.4---
2026-08-30 06:50 pm E 2.3-----30.09- 66.4 73.4 64.0---
2026-08-30 06:40 pmESE 1.7- 0.7---30.09- 66.6 73.4 64.0---
2026-08-30 06:30 pmESE 1.6-----30.09- 66.7 73.4 64.2---
2026-08-30 06:20 pmESE 2.7- 0.7---30.09- 67.1 73.4 64.4---
2026-08-30 06:10 pmNNE 1.4-----30.09- 67.6 73.4 63.9---
2026-08-30 06:00 pmWNW 1.9- 0.7---30.09- 67.5 73.4 63.5---
2026-08-30 05:50 pm- 1.0-----30.09- 68.0 73.4 63.5---
2026-08-30 05:40 pmNNW 1.6- 0.7---30.09- 68.0 73.4 63.5---
2026-08-30 05:30 pm N 1.6-----30.09- 68.2 73.4 63.7---
2026-08-30 05:20 pm N 2.5- 0.7---30.09- 68.0 73.4 63.5---
2026-08-30 05:10 pm N 2.1-----30.09- 67.8 73.4 63.1---
2026-08-30 05:00 pm N 4.7- 0.7---30.09- 67.8 73.4 62.6---
2026-08-30 04:50 pm N 3.5-----30.09- 68.0 73.4 62.8---
2026-08-30 04:40 pm N 4.3- 0.7---30.09- 68.2 73.4 64.0---
2026-08-30 04:30 pm NE 3.1-----30.09- 68.2 73.4 64.0---
2026-08-30 04:20 pm N 4.3- 0.7---30.09- 67.8 73.4 63.3---
2026-08-30 04:10 pmNNE 4.3-----30.10- 68.0 73.4 63.9---
2026-08-30 04:00 pmNNE 4.3- 0.7---30.10- 68.2 73.4 64.2---
2026-08-30 03:50 pm N 5.1-----30.10- 68.0 73.4 64.2---
2026-08-30 03:40 pmNNW 5.4- 0.7---30.09- 68.2 73.4 65.1---
2026-08-30 03:30 pm N 5.2-----30.11- 68.5 73.4 64.9---
2026-08-30 03:20 pm NE 5.4- 0.7---30.10- 68.5 73.4 64.6---
2026-08-30 03:10 pmNNW 3.1-----30.10- 69.1 73.4 64.0---
2026-08-30 03:00 pmNNW 4.7- 0.7---30.10- 69.4 73.4 64.4---
2026-08-30 02:50 pm- 0.6-----30.10- 69.8 73.4 64.2---
2026-08-30 02:40 pm N 2.5- 0.7---30.10- 69.3 73.4 64.0---
2026-08-30 02:30 pm- 1.0-----30.11- 69.4 73.4 63.5---
2026-08-30 02:20 pm N 3.5- 0.7---30.11- 69.3 73.4 64.4---
2026-08-30 02:10 pm W 3.5-----30.11- 69.3 73.4 64.9---
2026-08-30 02:00 pm W 3.9- 0.7---30.12- 69.3 73.4 64.8---
2026-08-30 01:50 pmWSW 3.9-----30.11- 69.3 73.4 64.9---
2026-08-30 01:40 pmWSW 1.9- 0.7---30.12- 68.9 73.4 65.1---
2026-08-30 01:30 pm SW 1.6-----30.11- 68.9 73.4 65.3---
2026-08-30 01:20 pm S 2.7- 0.7---30.11- 68.5 73.4 65.5---
2026-08-30 01:10 pmSSW 2.7-----30.11- 68.5 73.4 65.5---
2026-08-30 01:00 pm- 0.6- 0.7---30.11- 68.4 73.4 65.7---
2026-08-30 12:50 pmSSE 1.7-----30.11- 68.0 73.4 65.3---
2026-08-30 12:40 pmSSE 2.9- 0.7---30.11- 68.0 73.4 65.1---
2026-08-30 12:30 pm S 4.3-----30.11- 67.8 73.4 64.8---
2026-08-30 12:20 pmSSE 2.9- 0.7--WSW30.11- 68.2 73.4 64.4---
2026-08-30 12:10 pm W 1.0-----30.12- 68.2 73.4 64.4---
2026-08-30 12:00 pmNNW 2.7- 1.0--WSW30.12- 67.5 73.4 64.6---
2026-08-30 11:50 am NW 5.1-----30.12- 67.1 73.4 64.4---
2026-08-30 11:40 am NW 5.1- 0.7--WSW30.12- 66.9 73.4 64.4---
2026-08-30 11:30 amNNW 6.4-----30.12- 67.1 73.4 65.1---
2026-08-30 11:20 am NW 10.3- 0.7---30.12- 67.5 73.4 65.3---
2026-08-30 11:10 am NW 8.5-----30.12- 67.1 73.4 64.6---
2026-08-30 11:00 am NW 13.2- 0.7---30.10- 68.7 73.4 65.7---
2026-08-30 10:50 am W 3.9-----30.11- 71.2 73.4 63.0---